{"data":{"norad_id":68666,"epoch":"2026-05-25T03:36:52.917408Z","epoch_age_seconds":65494,"freshness":"FRESH","line1":"1 68666U 26077E   26145.15061247  .00018420  00000+0  57136-3 0  9997","line2":"2 68666  97.2859  16.6935 0002148  95.0248 265.1240 15.33450642  6871","mean_motion":15.33450642,"eccentricity":0.0002148,"inclination_deg":97.2859,"raan_deg":16.6935,"arg_perigee_deg":95.0248,"mean_anomaly_deg":265.124,"bstar":0.00057136,"rev_number":687,"period_min":93.905859149264,"perigee_km":464.05636901136,"apogee_km":466.99640680281,"semimajor_km":6843.6633879071,"source":"CELESTRAK","updated_at":"2026-05-25T13:38:21.991944Z"}}